sat.trackr.live / text

‹ back to catalog

STARLINK-31881

NORAD 59659 · 2024-084F

PAYLOAD ACTIVE UNKNOWN

§ Identity

Operator
Country
US
Launch date
2024-05-06
Launch site
AFETR
Launch vehicle
Mass (kg)
RCS (m²)

Purposes: comms

External: N2YO · Heavens-Above · Gunter

§ Orbital elements

Epoch: 2026-09-21T00:57:18.103968Z

Period
94.27 min
Inclination
43.0061°
Eccentricity
0.0001869
Mean motion
15.27577497 rev/d
Perigee alt
481.8 km
Apogee alt
484.3 km
Semi-major
6,861.2 km
B*
-5.4172e-6
RAAN
14.7354°
Arg perigee
270.3752°
Mean anomaly
89.6885°
Rev number
13,429

§ Raw data

STARLINK-318811 59659U 24084F   26264.03979287 -.00000411  00000+0 -54172-5 0  99982 59659  43.0061  14.7354 0001869 270.3752  89.6885 15.27577497134291

JSON: /api/v1/satellites/59659 · /tle

For live sub-satellite position, see the globe view (requires WebGL).

§ Visibility from observer

Set your observer location to see the next 7 days of passes ≥ 10°. The values pass through the URL so the page stays shareable.

No JS? Fill the form by hand. The geolocation button needs JavaScript.